Location: Dresden
(51.0500°N, 13.7500°E)
Time: 14:00:53
(UTC+00:00)

ISS - Visible Passes

Search period start: 22 October 2021 00:00
Search period end: 01 November 2021 00:00
Orbit: 417 x 423 km, 51.6° (Epoch: 22 October)

Date Brightness Start Highest point End Pass type
(mag) Time Alt. Az. Time Alt. Az. Time Alt. Az.
22 Oct -1.4 05:02:49 10° SSW 05:05:35 24° SE 05:08:23 10° E visible
23 Oct -1.0 04:16:16 10° S 04:18:33 17° SE 04:20:49 10° E visible
24 Oct -0.8 03:30:17 10° SSE 03:31:32 12° SE 03:32:46 10° ESE visible
24 Oct -2.8 05:04:28 10° SW 05:07:43 46° SSE 05:10:59 10° E visible
25 Oct -2.3 04:17:50 12° SW 04:20:34 34° SSE 04:23:39 10° E visible
26 Oct -1.9 03:32:53 23° SSE 03:33:27 24° SE 03:36:15 10° E visible
26 Oct -3.6 05:06:34 10° WSW 05:09:57 78° SSE 05:13:20 10° E visible
27 Oct -0.7 02:47:49 14° ESE 02:47:49 14° ESE 02:48:40 10° E visible
27 Oct -3.4 04:20:48 23° SW 04:22:43 62° SSE 04:26:04 10° E visible
28 Oct -3.0 03:35:38 46° SE 03:35:38 46° SE 03:38:46 10° E visible
28 Oct -3.7 05:08:52 10° W 05:12:15 81° N 05:15:38 10° E visible
29 Oct -0.9 02:50:24 17° E 02:50:24 17° E 02:51:25 10° E visible
29 Oct -3.8 04:23:23 29° W 04:24:57 89° N 04:28:21 10° E visible
30 Oct -3.4 03:38:06 64° E 03:38:06 64° E 03:41:03 10° E visible
30 Oct -3.7 05:11:09 10° W 05:14:32 81° N 05:17:55 10° E visible
31 Oct -0.9 02:52:46 18° E 02:52:46 18° E 02:53:44 10° E visible
31 Oct -3.8 04:25:44 31° W 04:27:13 78° N 04:30:36 10° E visible
